Temperature
20 18 18 19 19 20 20 20 19 19 19 19 18 18 18 18 17 17 17 17 18 18 18 18 18 18 18 17 17 17 17 16 16 16 16 15 15 15 15 15 14 14 14 14
18 19 19 19 19 19 19 19 19 19 19 19 18 18 18 17 17 17 17 17 18 18 17 17 17 17 17 17 17 17 17 16 16 16 16 15 15 15 15 14 14 14 14 14
20 20 20 20 20 20 20 19 19 19 19 18 19 18 18 17 17 17 17 18 18 18 18 17 17 17 17 17 17 17 16 16 16 15 15 15 15 14 14 14 14 14 14 13
19 19 20 21 20 20 19 20 20 19 18 17 18 17 18 17 17 17 17 17 17 17 18 17 17 17 17 17 17 16 16 16 15 15 15 15 14 14 14 14 14 14 13 13
20 20 21 20 21 20 20 20 19 18 18 17 17 17 17 17 17 17 16 17 17 17 17 17 17 17 17 17 16 16 16 15 15 15 15 14 14 14 13 13 13 13 13 13
19 20 20 20 21 20 20 18 17 15 15 17 17 17 17 16 17 17 16 17 17 17 17 17 17 17 17 16 16 16 15 15 15 14 14 14 14 13 13 13 13 13 12 12
19 20 20 20 20 20 19 17 16 17 16 16 17 16 16 17 17 16 16 16 16 17 17 17 17 16 16 16 16 15 15 15 14 14 14 14 13 13 13 13 12 12 12 12
18 19 20 20 20 19 18 18 17 17 16 16 16 16 16 17 16 16 16 16 16 16 17 17 16 16 16 16 15 15 15 15 14 14 14 13 13 13 13 12 12 12 12 11
17 18 20 20 20 20 18 17 17 15 16 15 15 16 16 16 16 15 15 15 16 16 16 16 16 16 15 15 15 15 15 14 14 14 13 13 13 12 12 12 12 11 11 11
17 17 18 19 20 19 18 16 14 15 16 16 16 16 16 17 16 15 15 15 15 15 16 16 16 15 15 15 15 15 15 14 14 13 13 13 13 12 12 12 11 11 11 11
16 16 17 18 19 19 17 16 15 13 14 15 16 16 17 16 16 15 15 15 15 15 15 15 15 15 15 15 14 14 14 14 13 13 13 12 12 12 12 12 11 11 11 11
15 14 15 17 18 18 17 16 14 15 15 14 14 15 17 15 15 15 15 15 15 15 15 15 15 15 15 14 14 14 14 13 13 13 13 12 12 12 12 11 11 11 11 11
15 14 15 16 17 17 17 16 15 14 13 13 14 16 16 15 14 15 15 15 15 15 15 15 15 15 15 14 14 14 13 13 13 13 12 12 12 12 11 11 11 11 11 11
15 13 14 15 16 16 16 17 15 14 14 14 14 16 16 15 14 14 14 15 15 14 14 14 14 14 14 14 14 13 13 13 12 12 12 12 12 11 11 11 11 11 11 11
13 14 14 15 16 16 16 17 16 15 15 15 15 15 16 15 14 14 14 14 14 14 14 14 14 14 14 14 13 13 13 12 12 12 12 12 12 11 11 11 11 11 11 11
12 13 14 14 16 16 16 17 16 16 16 15 15 15 15 15 15 14 14 14 14 14 14 14 14 14 14 13 13 13 13 12 12 12 12 12 11 11 11 11 11 11 11 11
11 12 13 13 15 16 15 16 17 17 16 16 15 16 15 14 14 14 14 14 14 14 14 14 14 14 13 13 13 13 12 12 12 12 12 11 11 11 11 11 11 11 11 11
11 11 11 12 14 15 16 16 17 16 16 15 15 15 14 14 14 14 15 15 14 14 14 14 14 14 13 13 13 12 12 12 12 12 11 12 11 11 11 11 11 11 11 10
11 11 11 11 13 14 16 16 16 16 16 15 15 14 14 14 14 14 15 15 15 15 14 14 14 14 13 13 13 12 12 12 12 12 12 11 11 11 11 11 11 11 11 10
11 11 11 12 14 14 15 16 17 16 15 15 14 14 13 13 13 14 15 15 15 15 14 14 14 13 13 13 12 12 12 12 12 12 12 11 11 11 11 11 11 11 11 10
12 11 11 12 13 13 14 15 16 15 14 15 14 14 14 14 14 16 15 15 15 14 14 14 13 13 13 13 12 12 12 12 12 11 11 11 11 11 11 11 11 11 11 11
12 11 11 11 12 13 14 15 14 14 14 14 14 14 14 15 15 15 15 15 14 14 14 14 13 13 13 12 12 12 12 12 11 11 11 11 11 11 11 11 11 11 11 11
11 11 10 11 12 13 13 14 14 14 14 14 14 14 15 15 15 15 15 14 14 14 14 13 13 13 12 12 12 12 12 12 11 11 11 11 11 11 11 11 11 11 11 11
10 10 10 10 11 12 13 14 14 14 14 15 15 15 15 15 15 15 14 14 14 14 13 13 13 12 12 12 12 12 12 11 11 11 11 11 11 11 11 11 11 11 11 11
10 10 9 10 11 12 14 14 14 14 14 15 15 15 15 15 15 15 14 14 14 13 13 13 13 12 12 12 12 12 12 12 11 11 11 11 11 11 11 11 11 11 11 11
9 9 9 10 11 11 12 13 13 14 14 14 14 14 14 14 14 14 14 14 13 13 13 13 13 12 12 12 12 12 12 11 11 11 11 11 11 11 11 11 11 11 11 11
Wind_Speed
3 5 1 4 5 4 3 2 4 6 3 0 4 5 6 4 4 5 4 5 5 6 5 4 5 6 6 6 6 6 5 5 5 4 4 3 2 1 1 0 0 1 1 2
5 3 5 3 2 3 3 2 4 5 2 1 2 5 4 4 5 6 6 7 7 5 4 5 5 5 6 7 7 6 6 6 5 4 4 3 3 2 1 0 0 1 2 1
3 5 1 1 1 1 3 4 5 4 2 3 1 5 3 3 3 3 5 5 6 8 8 7 6 6 6 6 7 6 5 5 5 4 3 3 3 2 1 1 0 0 1 1
3 4 1 1 3 3 4 5 4 2 1 2 0 3 6 3 4 5 5 6 7 6 7 7 7 6 6 5 4 5 5 5 4 4 5 5 3 3 2 2 1 0 1 0
5 2 2 3 5 4 5 2 1 1 3 1 2 1 7 2 5 7 7 6 6 6 7 7 7 7 5 4 4 4 4 5 4 4 5 5 3 3 1 1 1 0 1 1
5 3 3 4 3 1 2 5 6 6 4 1 3 3 7 4 6 6 5 6 6 6 6 6 6 5 5 5 5 5 5 4 3 4 4 5 4 3 3 2 1 1 0 1
7 5 3 1 1 3 5 5 4 5 4 5 3 3 8 6 5 6 6 6 6 6 7 7 7 7 6 6 5 5 5 4 3 3 3 4 4 4 4 3 3 2 1 1
4 7 4 1 3 3 2 6 5 4 5 5 3 5 7 4 2 2 2 4 4 5 6 6 7 7 7 6 6 6 6 4 3 3 2 3 3 2 2 3 3 3 3 2
2 6 5 3 2 4 3 2 4 5 2 3 6 7 7 2 3 3 1 1 3 4 5 6 6 6 6 6 6 6 6 5 4 4 3 2 2 2 2 2 2 2 3 2
3 5 6 4 3 4 3 6 5 4 3 4 5 5 5 5 5 3 2 3 3 3 4 5 5 6 6 5 5 4 5 5 4 3 3 2 2 2 2 2 2 2 2 2
0 2 6 5 1 2 2 3 4 3 4 4 4 7 5 6 5 5 5 5 4 4 5 5 5 5 5 5 5 4 4 4 3 3 3 2 2 1 2 2 2 2 2 2
0 2 3 6 5 1 2 4 5 3 4 4 3 7 5 3 3 4 4 3 4 4 4 4 5 5 5 5 5 5 4 4 3 3 3 2 1 1 2 2 2 2 2 2
1 2 3 7 5 3 1 1 2 3 3 4 4 7 3 2 1 1 2 3 4 4 3 4 4 4 4 5 5 4 4 4 3 3 2 2 2 2 3 3 2 2 2 2
1 2 5 6 8 5 6 5 2 3 3 4 7 9 8 4 3 3 3 4 5 4 4 4 4 4 4 4 4 4 4 4 3 3 3 2 3 3 3 3 2 2 2 3
2 2 5 8 10 7 8 9 6 6 7 7 8 8 10 7 6 5 4 5 5 5 5 5 5 4 4 4 4 4 4 4 4 3 3 4 3 3 2 2 2 2 2 3
3 2 3 6 7 7 7 8 7 6 6 7 6 8 7 3 2 4 5 6 6 6 6 6 5 5 5 5 4 4 4 4 4 4 4 3 2 2 2 2 2 2 2 2
2 1 2 5 7 5 5 7 7 5 4 5 6 7 4 2 3 6 6 6 6 7 6 7 7 6 6 6 5 5 4 4 4 4 4 3 3 3 3 3 2 2 2 2
5 3 2 3 3 5 7 4 4 5 5 4 5 5 3 3 2 2 4 5 5 5 6 6 6 5 5 4 4 4 3 3 4 3 4 4 4 4 3 2 3 2 1 2
8 6 3 2 3 7 7 4 2 4 5 3 3 3 1 2 3 2 2 4 5 5 4 4 5 5 5 5 5 4 4 4 4 4 4 4 4 4 3 3 3 2 1 2
3 3 3 3 3 5 6 6 3 1 4 3 1 2 2 3 0 4 3 3 2 2 2 3 4 4 5 5 5 5 4 4 5 5 4 3 3 4 4 4 3 2 2 2
2 1 3 4 5 7 5 6 3 1 6 6 3 3 4 4 5 4 2 2 2 2 2 4 5 5 5 5 5 5 5 5 5 4 3 3 3 3 3 3 2 2 1 1
3 2 3 3 4 6 5 4 0 5 6 5 4 3 4 3 1 1 2 2 2 2 2 4 5 4 3 5 6 5 6 5 3 3 2 2 2 2 1 2 1 1 1 1
3 3 3 5 7 6 5 4 5 4 5 5 4 5 3 2 2 1 2 2 2 3 3 3 4 4 3 4 6 6 5 3 3 3 2 1 1 1 1 1 0 1 1 1
4 2 2 6 8 9 9 7 6 5 6 6 5 4 3 3 3 3 3 3 2 2 3 3 5 4 4 4 5 5 4 4 4 3 2 1 1 0 1 0 1 1 1 2
6 3 4 8 10 10 8 6 8 8 7 6 6 4 2 3 3 3 3 3 3 2 3 4 5 5 4 4 4 3 4 5 4 3 2 1 1 1 0 1 1 2 3 4
6 7 6 8 8 7 11 10 9 8 8 6 5 5 2 3 4 3 3 2 2 3 3 4 4 4 4 4 4 3 4 5 5 3 2 1 1 1 1 1 3 3 4 6
Wind_Direction
46 62 262 237 204 212 215 232 270 273 273 238 240 257 263 236 204 215 212 202 201 204 194 165 153 149 152 157 165 175 177 181 167 167 172 175 192 192 182 181 72 120 120 123
29 315 249 230 197 197 213 245 270 290 326 202 250 277 269 228 217 220 217 210 206 196 175 165 155 155 164 169 175 182 185 183 180 182 175 166 154 156 162 163 66 109 123 127
212 256 274 157 298 239 244 210 235 249 344 27 1 311 285 269 240 229 223 220 207 197 191 184 174 178 175 179 184 183 184 183 179 169 135 109 90 79 86 80 349 339 94 127
262 278 296 305 271 194 267 245 215 200 111 292 50 278 283 261 263 239 233 230 222 205 195 190 184 185 188 184 168 168 165 162 165 158 154 153 160 177 198 193 202 302 22 75
281 281 295 280 262 197 232 342 106 117 133 28 0 204 284 301 262 253 242 234 225 208 198 194 189 188 180 159 145 142 140 144 146 148 155 155 165 176 166 143 141 112 355 352
264 273 235 249 283 176 133 60 52 49 68 330 252 191 276 248 239 258 243 228 219 205 195 190 178 163 152 144 142 138 129 136 145 149 151 156 168 170 158 165 168 175 264 296
327 315 287 223 8 24 70 75 24 359 3 258 266 220 251 255 246 244 246 229 211 192 184 179 172 168 163 158 152 145 143 155 151 142 157 166 177 177 181 189 188 192 211 242
328 305 298 280 197 196 169 139 159 217 237 274 296 239 254 262 293 301 264 216 190 181 176 175 172 164 163 161 157 153 158 164 155 154 171 158 161 176 191 195 196 201 213 232
249 275 301 300 276 148 144 170 169 149 195 266 274 279 299 299 338 342 355 177 189 177 169 167 158 154 157 159 164 166 165 168 167 168 165 152 162 170 193 207 207 214 221 228
195 265 290 303 37 25 128 141 99 120 178 257 283 278 264 274 270 272 255 230 208 174 163 158 152 154 154 156 157 161 160 165 167 164 169 165 173 188 195 191 225 232 238 235
174 228 306 341 322 258 61 85 101 123 164 184 266 273 241 237 233 228 230 217 200 188 175 166 160 154 143 140 143 147 146 147 152 167 162 164 189 194 196 212 238 238 245 235
356 130 285 282 282 270 184 170 147 161 237 198 216 268 287 242 233 214 220 198 180 177 165 154 151 145 144 147 150 156 161 164 174 169 161 175 187 192 198 231 252 236 236 242
10 84 341 335 335 357 14 180 160 141 136 181 207 265 309 5 353 233 198 178 165 162 156 144 142 147 157 157 158 163 171 178 177 160 160 172 200 213 224 237 251 245 246 261
78 155 193 232 257 277 284 275 222 153 180 228 234 259 288 282 251 241 206 184 173 168 165 156 157 160 158 166 168 170 176 176 172 170 180 199 226 231 236 245 256 258 249 254
70 230 247 263 271 269 267 269 248 223 217 217 251 258 270 261 234 212 187 174 172 180 181 180 181 175 162 165 175 180 183 179 176 182 203 224 233 235 235 244 258 267 254 248
20 259 283 287 283 283 276 275 260 249 240 237 259 272 274 271 195 179 179 177 183 195 197 193 190 183 181 184 183 184 196 195 180 196 217 228 229 230 231 239 246 254 266 265
288 229 282 276 297 313 275 251 240 241 235 212 237 262 297 286 222 205 194 187 195 200 196 191 195 197 195 193 187 190 200 195 189 207 224 228 223 227 233 231 234 248 269 290
202 198 215 274 326 259 250 249 238 241 251 231 248 269 266 254 251 215 184 185 204 207 204 201 194 195 196 189 182 181 176 180 193 214 231 232 223 225 232 230 237 254 257 271
194 184 196 198 252 275 286 287 243 230 268 249 241 271 7 74 45 326 232 208 214 210 203 204 196 190 183 182 180 172 184 190 198 217 230 235 224 225 231 235 240 243 251 278
123 163 180 205 238 254 268 308 303 160 283 312 288 235 162 109 36 265 244 225 221 202 186 185 173 168 178 184 165 166 187 196 213 224 228 228 218 219 226 229 234 234 234 259
342 301 207 220 243 265 289 322 24 123 274 309 283 245 204 208 225 240 200 191 178 174 172 164 163 173 187 174 159 172 189 208 218 218 219 221 213 208 209 208 211 216 243 278
251 245 227 199 230 262 334 4 56 263 297 306 293 272 236 247 275 201 174 165 151 142 145 153 159 176 175 161 162 178 203 213 200 184 194 204 195 189 155 155 206 203 209 288
250 217 229 219 235 271 313 287 287 289 298 299 299 291 239 227 237 229 194 171 169 166 163 156 160 165 168 170 172 189 207 189 165 161 171 173 141 115 124 150 192 305 246 256
278 281 262 278 277 294 300 298 309 314 305 302 297 284 238 229 208 198 183 178 175 175 171 161 157 165 177 183 189 199 189 164 154 158 172 162 133 42 34 109 198 229 260 266
253 277 281 278 287 303 300 311 319 323 326 323 320 305 244 192 202 197 190 188 183 177 171 167 169 175 187 184 184 181 160 149 149 158 168 163 168 179 341 319 261 249 249 230
223 218 231 254 261 269 285 299 308 305 303 300 308 313 284 190 185 184 186 187 174 165 157 155 158 163 171 169 173 167 157 154 152 160 172 173 184 222 254 308 326 306 264 278
Height
1495 1500 1504 1501 1500 1500 1501 1504 1506 1501 1494 1496 1497 1495 1491 1490 1491 1491 1491 1492 1493 1494 1496 1498 1499 1501 1503 1506 1508 1509 1511 1512 1513 1514 1515 1517 1518 1519 1520 1520 1521 1521 1521 1521
1500 1502 1496 1495 1496 1498 1500 1504 1505 1499 1494 1496 1498 1496 1491 1490 1489 1489 1490 1490 1491 1492 1494 1496 1497 1499 1501 1503 1505 1507 1508 1509 1510 1512 1513 1515 1516 1517 1518 1519 1519 1519 1519 1519
1500 1498 1493 1494 1496 1498 1499 1502 1501 1500 1497 1496 1499 1499 1493 1489 1488 1488 1489 1489 1489 1490 1492 1494 1495 1497 1499 1501 1502 1504 1505 1507 1508 1510 1512 1513 1514 1515 1516 1517 1517 1517 1517 1517
1498 1494 1493 1494 1495 1496 1501 1492 1494 1497 1504 1509 1504 1514 1497 1491 1489 1487 1487 1487 1487 1488 1490 1491 1493 1495 1497 1499 1500 1502 1503 1505 1506 1508 1510 1511 1512 1513 1513 1514 1515 1515 1515 1515
1497 1493 1493 1495 1492 1491 1493 1490 1493 1497 1503 1510 1508 1513 1504 1492 1491 1486 1484 1484 1484 1486 1487 1489 1491 1493 1495 1497 1499 1500 1501 1503 1504 1506 1507 1508 1510 1511 1512 1512 1513 1513 1513 1513
1494 1491 1490 1489 1487 1488 1489 1494 1498 1505 1510 1518 1509 1513 1508 1495 1488 1483 1481 1481 1482 1483 1485 1487 1489 1492 1493 1495 1497 1499 1500 1502 1504 1505 1506 1507 1508 1509 1510 1510 1511 1511 1511 1511
1499 1492 1488 1487 1489 1489 1493 1505 1519 1521 1526 1521 1507 1509 1504 1485 1481 1480 1479 1479 1479 1481 1482 1484 1487 1489 1491 1494 1496 1497 1499 1501 1502 1504 1505 1506 1507 1507 1508 1508 1509 1509 1509 1509
1511 1506 1490 1487 1489 1492 1495 1501 1520 1527 1528 1520 1509 1509 1493 1480 1478 1477 1477 1477 1478 1479 1480 1482 1485 1487 1490 1492 1494 1496 1498 1500 1501 1502 1503 1504 1505 1506 1506 1507 1507 1507 1507 1507
1512 1507 1489 1486 1485 1487 1495 1501 1501 1514 1517 1522 1514 1502 1487 1478 1478 1478 1477 1477 1477 1478 1480 1482 1484 1486 1489 1491 1493 1495 1497 1498 1500 1501 1502 1503 1504 1504 1505 1505 1505 1506 1506 1506
1505 1508 1494 1487 1485 1487 1490 1496 1508 1516 1523 1524 1513 1505 1497 1483 1479 1478 1477 1477 1477 1478 1480 1481 1483 1485 1488 1490 1493 1495 1496 1497 1498 1500 1500 1501 1502 1503 1503 1504 1504 1504 1504 1504
1503 1509 1501 1493 1492 1493 1495 1499 1505 1514 1516 1521 1520 1508 1482 1479 1476 1476 1476 1476 1476 1477 1479 1480 1482 1485 1487 1489 1491 1493 1495 1496 1497 1499 1499 1500 1501 1502 1502 1502 1502 1503 1502 1502
1505 1510 1511 1500 1490 1488 1491 1495 1503 1511 1513 1515 1516 1505 1475 1474 1474 1474 1474 1475 1476 1477 1478 1480 1482 1484 1486 1488 1490 1492 1494 1495 1496 1498 1498 1499 1500 1500 1501 1501 1501 1501 1501 1501
1505 1511 1516 1509 1502 1494 1493 1494 1497 1503 1509 1514 1514 1499 1475 1474 1473 1473 1473 1474 1475 1476 1478 1479 1481 1483 1485 1487 1489 1491 1492 1494 1495 1497 1497 1498 1499 1499 1499 1500 1500 1499 1499 1499
1503 1510 1514 1515 1507 1499 1496 1493 1495 1500 1508 1508 1502 1489 1477 1475 1473 1472 1472 1473 1474 1476 1477 1479 1480 1482 1484 1486 1488 1490 1491 1493 1494 1495 1496 1497 1498 1498 1498 1498 1498 1498 1497 1497
1503 1509 1505 1502 1496 1494 1492 1490 1489 1493 1493 1496 1489 1484 1475 1471 1470 1470 1471 1472 1473 1474 1476 1478 1479 1481 1482 1485 1487 1488 1490 1491 1493 1494 1495 1495 1496 1496 1497 1497 1497 1496 1496 1495
1505 1507 1504 1500 1493 1491 1490 1486 1485 1485 1484 1484 1482 1479 1469 1467 1467 1468 1469 1470 1471 1473 1475 1476 1478 1479 1481 1483 1485 1487 1488 1490 1491 1492 1493 1494 1494 1495 1495 1495 1495 1495 1494 1493
1508 1508 1508 1506 1496 1491 1493 1483 1480 1478 1476 1478 1480 1475 1468 1467 1466 1465 1466 1468 1469 1471 1473 1474 1476 1478 1479 1481 1483 1485 1487 1489 1490 1491 1492 1492 1493 1493 1494 1494 1494 1493 1493 1492
1505 1508 1510 1508 1501 1502 1486 1473 1472 1473 1472 1471 1470 1468 1467 1466 1465 1465 1466 1467 1468 1470 1471 1472 1474 1476 1478 1480 1482 1484 1486 1487 1488 1489 1490 1491 1491 1491 1492 1492 1492 1492 1491 1491
1497 1503 1507 1508 1504 1494 1479 1471 1471 1473 1472 1468 1468 1466 1466 1465 1465 1465 1466 1466 1467 1468 1469 1471 1473 1475 1477 1479 1481 1483 1484 1486 1487 1488 1488 1489 1489 1489 1490 1490 1490 1490 1490 1490
1495 1498 1504 1504 1501 1496 1481 1469 1466 1470 1474 1466 1466 1465 1466 1466 1469 1466 1464 1465 1466 1467 1468 1470 1472 1473 1475 1477 1479 1481 1482 1484 1485 1486 1487 1487 1488 1488 1488 1488 1489 1489 1489 1489
1500 1500 1502 1502 1499 1488 1475 1470 1468 1479 1477 1466 1465 1464 1465 1464 1464 1463 1462 1464 1465 1466 1467 1468 1470 1472 1474 1476 1478 1479 1481 1482 1484 1485 1485 1486 1486 1486 1487 1487 1487 1488 1488 1488
1501 1501 1499 1500 1499 1490 1473 1471 1474 1474 1468 1466 1464 1463 1463 1462 1462 1461 1461 1462 1463 1465 1466 1468 1469 1471 1473 1475 1477 1478 1480 1482 1483 1483 1484 1484 1485 1486 1486 1486 1487 1487 1487 1486
1498 1497 1496 1495 1489 1478 1475 1474 1472 1470 1467 1464 1463 1462 1462 1461 1461 1461 1461 1462 1463 1464 1465 1467 1469 1470 1472 1474 1476 1477 1479 1481 1482 1483 1483 1484 1484 1485 1485 1486 1486 1486 1486 1485
1496 1493 1492 1488 1479 1475 1473 1471 1469 1467 1465 1463 1462 1461 1460 1460 1459 1460 1460 1461 1462 1463 1465 1467 1468 1470 1472 1473 1475 1477 1479 1480 1481 1482 1483 1484 1484 1485 1485 1486 1486 1485 1485 1484
1494 1492 1491 1486 1479 1473 1469 1468 1467 1465 1463 1462 1460 1460 1459 1459 1458 1459 1459 1460 1461 1462 1464 1466 1467 1469 1471 1473 1474 1476 1478 1480 1481 1482 1483 1484 1485 1485 1486 1486 1486 1485 1485 1484
1487 1488 1488 1482 1476 1475 1469 1467 1466 1463 1461 1460 1459 1458 1458 1458 1458 1458 1459 1460 1461 1462 1464 1465 1467 1469 1471 1472 1474 1476 1478 1479 1481 1482 1483 1484 1485 1485 1485 1485 1485 1485 1484 1483